Halefom Ararse Kebedew

ATLETICA BUJA
21-03-1992


Informazioni sul tesseramento aggiornate al 2019


Condividi con
Seguici su:


800 metri

Anno Data Tipo Cr. Cat. Piazz. Prestaz. Vento Città  
201228/07PEPM5 se- 2 2:08.74Gorizia
 

1500 metri

Anno Data Tipo Cr. Cat. Piazz. Prestaz. Vento Città  
201607/05PESM7 se- 1 4:10.40Udine
201510/07PESM7 se- 2 4:12.20Sacile
201525/07PESM8 se- 1 4:13.01Nova Gorica
201509/05PESM9 se- 2 4:14.80Udine
201414/06PEPM4 se- 3 4:18.52Marcon
201412/07PEPM3 su- 1 4:20.57Majano
201306/07PEPM8 su- 1 4:20.57Gorizia
201319/06PEPM4 se- 1 4:22.73Pordenone
201215/09PEPM3 se- 2 4:24.07Spilimbergo
201213/07PEPM5 se- 1 4:26.49Pordenone
201230/06PEPM15 su- 1 4:27.00Gorizia
201325/04PEPM4 se- 2 4:27.10Tolmezzo
201220/06PEPM12 su- 1 4:31.74Pordenone
 

3000 metri

Anno Data Tipo Cr. Cat. Piazz. Prestaz. Vento Città  
201512/09PESM10 se- 2 8:46.09Gorizia
201630/06PESM8 se- 3 8:47.75Ferrara
201528/07PESM3 se- 2 8:53.44Trento
201830/06PESM5 su- 1 8:53.88Codroipo
201504/07PESM4 su- 1 8:56.15Majano
201701/06PESM7 se- 2 8:56.41Codroipo
201625/04PESM6 se- 2 9:00.07Udine
201725/04PESM5 se- 1 9:04.60Udine
201418/06PMPM9 se- 2 9:13.8Codroipo
201403/05PEPM4 su- 1 9:14.84Codroipo
201425/04PEPM7 su- 1 9:21.84Udine
201215/07PEPM6 su- 1 9:34.62Majano
201228/06PEPM8 su- 1 9:39.42Gorizia
 

5000 metri

Anno Data Tipo Cr. Cat. Piazz. Prestaz. Vento Città  
201201/09PEPM14 su- 1 15:00.81Brugnera
201827/05PESM4 su- 1 15:14.87Pordenone
201521/07PESM8 su- 1 15:18.54Trento
201505/09PESM13 se- 1 15:20.55Brugnera
201629/05PESM8 su- 1 15:24.76Gorizia
201510/05PESM5 su- 1 15:26.10Udine
201528/06PESM3 su- 1 15:30.73Gorizia
201406/09PEPM17 su- 1 15:32.00Brugnera
201517/06PESM5 su- 1 15:34.41Gorizia
201808/07PESM3 su- 1 15:35.41Udine
201608/05PESM8 su- 1 15:37.15Udine
201531/05PESM4 su- 1 15:39.65Trieste
201725/06PESM5 su- 1 15:41.52Gorizia
201429/06PEPM5 su- 1 15:49.62Gorizia
201408/06PEPM5 su- 1 15:58.88Trieste
201216/09PEPM5 su- 1 16:18.99Spilimbergo
201201/07PEPM5 su- 1 16:54.70Gorizia
 

Corsa strada Km 10

Anno Data Tipo Cr. Cat. Piazz. Prestaz. Vento Città  
201822/04SMSM25 se- 1 32:30Muggia
201809/09SMSM8 su- 1 33:07Pordenone
201919/05SMSM6 su- 1 33:57Sacile
 

MARATONINA A

Anno Data Tipo Cr. Cat. Piazz. Prestaz. Vento Città  
201825/11SMSM26 su- 1 1h16:35Palmanova
 

MARATONINA B

Anno Data Tipo Cr. Cat. Piazz. Prestaz. Vento Città  
201317/11SMPM93 su- 1 1h18:57Palmanova
 

Attenzione: le schede-atleti sono composte automaticamente sulla base dei dati inseriti all'interno degli archivi nazionali aggiornati dal 2005 al 19-02-2020. Se un risultato non compare nelle graduatorie, quindi, è segno che lo stesso, con ogni probabilità, non è stato ancora inserito. Il processo di inserimento è di competenza dei Comitati Regionali sul cui territorio ha avuto luogo la manifestazione: eventuali segnalazioni per errori od omissioni, vanno dunque indirizzate agli stessi (potete utilizzare l'elenco con relativi contatti). Considerato però che solo le principali manifestazioni nazionali sono oggetto di inserimenti "in diretta" (sul posto di gara), mentre le altre, incluse le internazionali in programma all'estero, vengono inserite in tempi successivi, è opportuno attendere un ragionevole lasso di tempo prima di procedere ad una segnalazione.

Stickers


Non ventosi

GaraTipoPrestazioneVentoAnnoCittà
800 metriPista 2:08.742012Gorizia
1500 metriPista 4:10.402016Udine
3000 metriPista 8:46.092015Gorizia
5000 metriPista 15:00.812012Brugnera
Corsa strada Km 10Strada 32:302018Muggia
MARATONINA AStrada 1h16:352018Palmanova
MARATONINA BStrada 1h18:572013Palmanova

AnnoTipo mov.CategoriaSocietà
2019RinnovoSeniores MaschileATLETICA BUJA
2018RinnovoSeniores MaschileATLETICA BUJA
2017TrasferimentoSeniores MaschileATLETICA BUJA
2016PrestitoSeniores MaschileSPORTIAMO
2015PrestitoSeniores MaschileSPORTIAMO
2014RinnovoPromesse MaschileATLETICA 2000
2013RinnovoPromesse MaschileATLETICA 2000
2012NuovoPromesse MaschileATLETICA 2000